TimeCDT,TemperatureF,Dew PointF,Humidity,Sea Level PressureIn,VisibilityMPH,Wind Direction,Wind SpeedMPH,Gust SpeedMPH,PrecipitationIn,Events,Conditions,WindDirDegrees,DateUTC
12:03 AM,66.2,66.2,100,29.86,10.0,Calm,Calm,-,N/A,,Overcast,0,2013-08-06 05:03:00
12:28 AM,66.2,66.2,100,29.86,10.0,Calm,Calm,-,N/A,,Overcast,0,2013-08-06 05:28:00
12:58 AM,64.4,64.4,100,29.86,10.0,Calm,Calm,-,N/A,,Overcast,0,2013-08-06 05:58:00
1:53 AM,62.6,62.6,100,29.86,8.0,ESE,1.2,-,N/A,,Overcast,120,2013-08-06 06:53:00
1:58 AM,63.1,63.1,100,29.85,7.0,ESE,2.3,-,N/A,,Overcast,120,2013-08-06 06:58:00
2:08 AM,64.4,64.4,100,29.86,10.0,SE,2.3,-,N/A,,Overcast,130,2013-08-06 07:08:00
2:13 AM,64.4,64.4,100,29.85,10.0,SE,3.5,-,N/A,,Overcast,130,2013-08-06 07:13:00
2:44 AM,64.4,64.4,100,29.84,10.0,South,4.6,-,N/A,,Overcast,170,2013-08-06 07:44:00
2:54 AM,64.4,64.4,100,29.85,9.0,SSW,4.6,-,N/A,,Overcast,200,2013-08-06 07:54:00
2:58 AM,64.4,64.4,100,29.85,9.0,SW,4.6,-,N/A,,Overcast,220,2013-08-06 07:58:00
3:03 AM,64.4,64.4,100,29.84,9.0,SW,2.3,-,N/A,,Overcast,220,2013-08-06 08:03:00
3:08 AM,64.4,64.4,100,29.84,10.0,SW,3.5,-,N/A,,Overcast,220,2013-08-06 08:08:00
3:28 AM,64.4,64.4,100,29.84,9.0,SW,4.6,-,N/A,,Overcast,230,2013-08-06 08:28:00
3:38 AM,64.4,64.4,100,29.84,9.0,Calm,Calm,-,N/A,,Mostly Cloudy,0,2013-08-06 08:38:00
3:43 AM,64.4,64.4,100,29.84,10.0,SSW,3.5,-,N/A,,Mostly Cloudy,210,2013-08-06 08:43:00
3:48 AM,64.4,64.4,100,29.84,10.0,SW,2.3,-,N/A,,Mostly Cloudy,230,2013-08-06 08:48:00
3:58 AM,64.8,64.8,100,29.85,10.0,SW,6.9,-,N/A,,Mostly Cloudy,230,2013-08-06 08:58:00
4:18 AM,64.4,64.4,100,29.83,10.0,West,2.3,-,N/A,,Scattered Clouds,270,2013-08-06 09:18:00
4:23 AM,64.4,64.4,100,29.83,9.0,WSW,1.2,-,N/A,,Scattered Clouds,240,2013-08-06 09:23:00
4:28 AM,62.6,62.6,100,29.83,4.0,Calm,Calm,-,N/A,,Partly Cloudy,0,2013-08-06 09:28:00
4:33 AM,62.6,62.6,100,29.83,0.8,Calm,Calm,-,N/A,,Mist,0,2013-08-06 09:33:00
4:38 AM,60.8,60.8,100,29.83,0.2,Calm,Calm,-,N/A,Fog,Fog,0,2013-08-06 09:38:00
4:53 AM,60.8,60.8,100,29.82,0.5,South,2.3,-,N/A,Fog,Fog,180,2013-08-06 09:53:00
4:54 AM,60.8,60.8,100,29.82,0.5,South,3.5,-,N/A,Fog,Fog,170,2013-08-06 09:54:00
4:58 AM,61.0,61.0,100,29.83,0.8,South,4.6,-,N/A,,Mist,190,2013-08-06 09:58:00
5:03 AM,62.6,62.6,100,29.82,2.0,SSW,3.5,-,N/A,,Mostly Cloudy,210,2013-08-06 10:03:00
5:08 AM,62.6,62.6,100,29.82,9.0,SSW,3.5,-,N/A,,Mostly Cloudy,210,2013-08-06 10:08:00
5:18 AM,62.6,62.6,100,29.82,10.0,SW,1.2,-,N/A,,Mostly Cloudy,220,2013-08-06 10:18:00
5:33 AM,62.6,62.6,100,29.81,10.0,SSW,4.6,-,N/A,,Overcast,210,2013-08-06 10:33:00
5:48 AM,64.4,64.4,100,29.81,9.0,SSE,2.3,-,N/A,,Overcast,150,2013-08-06 10:48:00
5:58 AM,63.9,63.9,100,29.82,7.0,South,2.3,-,N/A,,Overcast,170,2013-08-06 10:58:00
6:58 AM,64.4,64.4,100,29.83,2.0,WSW,2.3,-,N/A,,Overcast,240,2013-08-06 11:58:00
7:58 AM,66.2,66.2,100,29.85,3.0,WSW,4.6,-,N/A,,Overcast,240,2013-08-06 12:58:00
8:55 AM,66.2,66.2,100,29.86,10.0,WSW,8.1,-,N/A,,Overcast,250,2013-08-06 13:55:00
8:58 AM,68.0,66.2,94,29.87,10.0,WSW,8.1,-,N/A,,Overcast,240,2013-08-06 13:58:00
9:18 AM,68.0,66.2,94,29.87,10.0,WSW,5.8,-,N/A,,Overcast,250,2013-08-06 14:18:00
9:27 AM,69.8,66.2,88,29.86,10.0,SW,4.6,-,N/A,,Mostly Cloudy,230,2013-08-06 14:27:00
9:35 AM,71.6,66.2,83,29.87,10.0,WSW,8.1,-,N/A,,Scattered Clouds,250,2013-08-06 14:35:00
9:36 AM,71.6,66.2,83,29.87,10.0,WSW,8.1,-,N/A,,Scattered Clouds,250,2013-08-06 14:36:00
9:39 AM,71.6,66.2,83,29.87,10.0,SW,8.1,-,N/A,,Scattered Clouds,230,2013-08-06 14:39:00
9:55 AM,71.6,64.4,78,29.86,10.0,WSW,5.8,-,N/A,,Clear,250,2013-08-06 14:55:00
9:58 AM,71.6,64.4,78,29.85,10.0,WSW,5.8,-,N/A,,Overcast,240,2013-08-06 14:58:00
10:55 AM,75.2,66.2,73,29.86,10.0,SSW,8.1,-,N/A,,Partly Cloudy,200,2013-08-06 15:55:00
10:58 AM,75.2,66.2,73,29.86,10.0,SSW,6.9,-,N/A,,Overcast,210,2013-08-06 15:58:00
11:55 AM,75.2,64.4,69,29.85,10.0,Variable,3.5,-,N/A,,Partly Cloudy,0,2013-08-06 16:55:00
11:58 AM,75.2,64.4,69,29.84,10.0,SSW,4.6,-,N/A,,Overcast,210,2013-08-06 16:58:00
12:58 PM,80.6,66.2,61,29.83,10.0,West,10.4,18.4,N/A,,Mostly Cloudy,260,2013-08-06 17:58:00
1:58 PM,80.6,62.6,54,29.81,10.0,SW,11.5,-,N/A,,Mostly Cloudy,230,2013-08-06 18:58:00
2:58 PM,80.6,64.4,58,29.80,10.0,West,10.4,-,N/A,,Mostly Cloudy,260,2013-08-06 19:58:00
3:58 PM,82.4,66.2,58,29.81,10.0,West,10.4,-,N/A,,Mostly Cloudy,260,2013-08-06 20:58:00
4:58 PM,82.4,68.0,62,29.80,10.0,WSW,11.5,-,N/A,,Scattered Clouds,240,2013-08-06 21:58:00
5:58 PM,80.6,64.4,58,29.80,10.0,SW,10.4,-,N/A,,Partly Cloudy,220,2013-08-06 22:58:00
6:58 PM,80.6,66.2,61,29.79,10.0,SSW,6.9,-,N/A,,Partly Cloudy,210,2013-08-06 23:58:00
7:58 PM,77.0,68.0,74,29.77,10.0,South,5.8,-,N/A,,Partly Cloudy,190,2013-08-07 00:58:00
8:58 PM,75.2,68.0,78,29.77,10.0,South,6.9,-,N/A,,Mostly Cloudy,180,2013-08-07 01:58:00
9:58 PM,73.4,68.0,83,29.76,10.0,South,9.2,-,N/A,,Mostly Cloudy,170,2013-08-07 02:58:00
10:58 PM,75.2,68.0,78,29.76,10.0,SSW,12.7,-,N/A,,Mostly Cloudy,200,2013-08-07 03:58:00
11:34 PM,77.0,68.0,74,29.77,10.0,SW,10.4,-,N/A,Rain-Thunderstorm,Light Rain Showers,230,2013-08-07 04:34:00
11:47 PM,75.2,68.0,78,29.83,10.0,NW,25.3,34.5,N/A,Rain-Thunderstorm,Light Thunderstorms and Rain,320,2013-08-07 04:47:00
11:54 PM,69.8,60.8,73,29.83,10.0,NNW,23.0,42.6,N/A,Rain-Thunderstorm,Light Thunderstorms and Rain,330,2013-08-07 04:54:00
11:58 PM,69.3,60.1,72,29.83,9.0,NNW,24.2,42.6,0.00,Rain-Thunderstorm,Light Thunderstorms and Rain,330,2013-08-07 04:58:00